Location: Lafig�re
(44.4503°N, 4.0357°E)
Time: 14:31:22
(UTC+00:00)

Altair - Visible Passes

Search period start: 25 January 2021 00:00
Search period end: 04 February 2021 00:00
Orbit: 1501 x 1682 km, 47.2° (Epoch: 24 January)

Date Brightness Start Highest point End Pass type
(mag) Time Alt. Az. Time Alt. Az. Time Alt. Az.
25 Jan 9.0 02:41:53 24° SE 02:42:41 25° SE 02:50:13 10° E visible
25 Jan 7.8 04:39:57 26° SW 04:46:09 67° SSE 04:56:12 10° ENE visible
26 Jan 9.1 02:18:37 22° ESE 02:18:37 22° ESE 02:24:44 10° E visible
26 Jan 7.9 04:16:40 37° SSW 04:20:58 63° SSE 04:30:58 10° ENE visible
26 Jan 7.7 06:15:42 10° W 06:25:52 80° N 06:36:06 10° ENE visible
27 Jan 9.4 01:55:13 18° ESE 01:55:13 18° ESE 01:59:11 10° E visible
27 Jan 7.9 03:53:16 48° SSW 03:55:49 59° SE 04:05:43 10° ENE visible
27 Jan 7.7 05:51:18 13° W 06:00:36 82° NNW 06:10:51 10° ENE visible
28 Jan 9.6 01:31:44 14° E 01:31:44 14° E 01:33:34 10° E visible
28 Jan 7.9 03:29:45 54° SSE 03:30:40 56° SE 03:40:28 10° ENE visible
28 Jan 7.6 05:27:48 21° WSW 05:35:20 83° NNW 05:45:36 10° ENE visible
29 Jan 8.0 03:06:10 52° SE 03:06:10 52° SE 03:15:12 10° ENE visible
29 Jan 7.6 05:04:12 30° WSW 05:10:06 85° NNW 05:20:21 10° ENE visible
30 Jan 8.3 02:42:31 43° ESE 02:42:31 43° ESE 02:49:55 10° ENE visible
30 Jan 7.6 04:40:33 41° WSW 04:44:51 87° NNW 04:55:06 10° ENE visible
31 Jan 8.7 02:18:48 35° E 02:18:48 35° E 02:24:39 10° ENE visible
31 Jan 7.5 04:16:50 55° WSW 04:19:37 89° N 04:29:51 10° ENE visible
31 Jan 7.8 06:14:53 10° W 06:25:02 77° N 06:35:16 10° E visible
01 Feb 9.0 01:55:03 27° E 01:55:03 27° E 01:59:22 10° ENE visible
01 Feb 7.4 03:53:04 72° WSW 03:54:22 88° SSE 04:04:37 10° ENE visible
01 Feb 7.7 05:51:05 16° W 05:59:46 77° N 06:10:00 10° E visible
02 Feb 9.3 01:31:15 20° E 01:31:15 20° E 01:34:04 10° ENE visible
02 Feb 7.5 03:29:16 85° SE 03:29:16 85° SE 03:39:22 10° ENE visible
02 Feb 7.7 05:27:17 22° W 05:34:29 76° N 05:44:44 10° E visible
03 Feb 9.6 01:07:26 14° ENE 01:07:26 14° ENE 01:08:45 10° ENE visible
03 Feb 7.7 03:05:26 69° E 03:05:26 69° E 03:14:07 10° ENE visible
03 Feb 7.7 05:03:27 30° W 05:09:13 76° N 05:19:27 10° E visible
